BAW982 SBGR-EGLL

Flight info

Callsign BAW982
Flight time N/A
Altitude 33000
Route VUMEV UZ14 NITLU UZ3 UTLEV UZ88 PABES UZ4 UKAVA UZ51 TIPNU/N0503F350 UZ51 MOVGA DCT BIKOM/M085F370 DCT ULTEM DCT 25N028W 30N026W 35N024W 40N020W/M085F390 DCT GONAN DCT TAMEL DCT EVBAK DCT GAPLI/N0488F390 DCT SIDDI DCT DAWLY/N0464F230 N17 OTMET
Aircraft A35K/H-SDE2E3GHIJ3J4J5LM1ORWXY/LB1D1

Departure

Time 2026-05-05 04:35
Airport São Paulo/Guarulhos–Governor André Franco Montoro International Airport (SBGR)

Arrival

Time N/A
Airport London Heathrow Airport (EGLL)
Time Latitude Longitude Altitude Speed Heading
2026-05-05 04:21 -23.42987 -46.48277 2471 ft 0 kts 356°
2026-05-05 04:26 -23.42994 -46.48276 2470 ft 4 kts 355°
2026-05-05 04:26 -23.43021 -46.48273 2473 ft 3 kts 354°
2026-05-05 04:27 -23.43042 -46.48268 2473 ft 4 kts 311°
2026-05-05 04:27 -23.43051 -46.48243 2471 ft 4 kts 269°
2026-05-05 04:27 -23.43049 -46.48220 2471 ft 1 kts 264°
2026-05-05 04:27 -23.43049 -46.48215 2471 ft 0 kts 264°
2026-05-05 04:30 -23.43049 -46.48216 2471 ft 0 kts 264°
2026-05-05 04:30 -23.43051 -46.48242 2471 ft 7 kts 264°
2026-05-05 04:31 -23.43058 -46.48320 2475 ft 14 kts 264°
2026-05-05 04:31 -23.43092 -46.48419 2478 ft 14 kts 222°
2026-05-05 04:31 -23.43179 -46.48419 2477 ft 13 kts 157°
2026-05-05 04:31 -23.43257 -46.48379 2477 ft 12 kts 156°
2026-05-05 04:32 -23.43337 -46.48351 2476 ft 15 kts 164°
2026-05-05 04:32 -23.43411 -46.48283 2472 ft 15 kts 87°
2026-05-05 04:32 -23.43395 -46.48211 2472 ft 0 kts 72°
2026-05-05 04:32 -23.43394 -46.48211 2472 ft 0 kts 72°
2026-05-05 04:34 -23.43394 -46.48210 2472 ft 0 kts 72°
2026-05-05 04:34 -23.43353 -46.48071 2474 ft 52 kts 73°
2026-05-05 04:34 -23.43189 -46.47444 2467 ft 119 kts 73°
2026-05-05 04:34 -23.42898 -46.46373 2478 ft 175 kts 73°
2026-05-05 04:35 -23.42535 -46.45043 3030 ft 186 kts 73°
2026-05-05 04:35 -23.42147 -46.43674 3772 ft 190 kts 71°
2026-05-05 04:35 -23.41767 -46.42360 4389 ft 178 kts 71°
2026-05-05 04:35 -23.41385 -46.41068 4719 ft 185 kts 70°
2026-05-05 04:36 -23.40969 -46.39678 4892 ft 200 kts 71°
2026-05-05 04:36 -23.40527 -46.38175 5095 ft 216 kts 71°
2026-05-05 04:36 -23.40030 -46.36562 5293 ft 233 kts 67°
2026-05-05 04:36 -23.39249 -46.34942 5483 ft 251 kts 57°
2026-05-05 04:37 -23.38287 -46.33279 5727 ft 268 kts 56°
2026-05-05 04:37 -23.37259 -46.31532 6130 ft 278 kts 56°
2026-05-05 04:37 -23.36222 -46.29757 6635 ft 284 kts 56°
2026-05-05 04:37 -23.35153 -46.27920 7189 ft 289 kts 57°
2026-05-05 04:38 -23.34075 -46.26063 7833 ft 291 kts 57°
2026-05-05 04:38 -23.32987 -46.24188 8489 ft 294 kts 57°
2026-05-05 04:38 -23.31890 -46.22298 9161 ft 296 kts 57°
2026-05-05 04:38 -23.30785 -46.20393 9848 ft 299 kts 57°
2026-05-05 04:39 -23.29681 -46.18491 10426 ft 304 kts 58°
2026-05-05 04:39 -23.28523 -46.16497 10728 ft 320 kts 58°
2026-05-05 04:39 -23.27302 -46.14396 11003 ft 336 kts 58°
2026-05-05 04:39 -23.26022 -46.12192 11283 ft 352 kts 58°
2026-05-05 04:40 -23.24685 -46.09892 11553 ft 367 kts 58°
2026-05-05 04:40 -23.23296 -46.07503 11805 ft 381 kts 58°
2026-05-05 04:40 -23.21732 -46.05115 12034 ft 394 kts 47°
2026-05-05 04:40 -23.19568 -46.03313 12306 ft 402 kts 26°
2026-05-05 04:41 -23.16960 -46.02200 12754 ft 405 kts 16°
2026-05-05 04:41 -23.14250 -46.01248 13228 ft 410 kts 15°
2026-05-05 04:41 -23.11471 -46.00540 13732 ft 412 kts
2026-05-05 04:41 -23.08606 -46.00173 14188 ft 415 kts
2026-05-05 04:42 -23.05720 -45.99854 14613 ft 418 kts
2026-05-05 04:42 -23.02808 -45.99515 15028 ft 422 kts
2026-05-05 04:42 -22.99915 -45.99144 15457 ft 425 kts
2026-05-05 04:42 -22.96966 -45.98766 15870 ft 428 kts
2026-05-05 04:43 -22.93984 -45.98393 16286 ft 431 kts
2026-05-05 04:43 -22.90997 -45.97913 16687 ft 436 kts 11°
2026-05-05 04:43 -22.88092 -45.96917 17086 ft 441 kts 22°
2026-05-05 04:43 -22.85403 -45.95351 17458 ft 445 kts 30°
2026-05-05 04:44 -22.82781 -45.93517 17798 ft 450 kts 33°
2026-05-05 04:44 -22.80206 -45.91568 18195 ft 453 kts 34°
2026-05-05 04:44 -22.77632 -45.89565 18542 ft 456 kts 35°
2026-05-05 04:44 -22.75040 -45.87546 18871 ft 459 kts 34°
2026-05-05 04:45 -22.72427 -45.85529 19242 ft 461 kts 34°
2026-05-05 04:45 -22.69830 -45.83547 19570 ft 464 kts 34°
2026-05-05 04:45 -22.67175 -45.81537 19948 ft 466 kts 34°
2026-05-05 04:45 -22.64503 -45.79525 20314 ft 469 kts 33°
2026-05-05 04:46 -22.61817 -45.77509 20682 ft 471 kts 33°
2026-05-05 04:46 -22.59117 -45.75484 21086 ft 473 kts 33°
2026-05-05 04:46 -22.56396 -45.73443 21455 ft 476 kts 33°
2026-05-05 04:46 -22.53661 -45.71394 21825 ft 479 kts 33°
2026-05-05 04:47 -22.50909 -45.69331 22174 ft 482 kts 33°
2026-05-05 04:47 -22.48135 -45.67254 22542 ft 485 kts 33°
2026-05-05 04:47 -22.45387 -45.65197 22922 ft 487 kts 33°
2026-05-05 04:47 -22.42583 -45.63098 23312 ft 490 kts 33°
2026-05-05 04:48 -22.39771 -45.60994 23692 ft 493 kts 33°
2026-05-05 04:48 -22.36937 -45.58876 24028 ft 496 kts 33°
2026-05-05 04:48 -22.34088 -45.56747 24343 ft 499 kts 32°
2026-05-05 04:48 -22.31221 -45.54606 24689 ft 502 kts 32°
2026-05-05 04:49 -22.28373 -45.52479 25035 ft 505 kts 32°
2026-05-05 04:49 -22.25474 -45.50313 25378 ft 508 kts 32°
2026-05-05 04:49 -22.22549 -45.48131 25716 ft 512 kts 32°
2026-05-05 04:49 -22.19602 -45.45936 26042 ft 516 kts 32°
2026-05-05 04:50 -22.16632 -45.43724 26392 ft 519 kts 32°
2026-05-05 04:50 -22.13647 -45.41501 26746 ft 522 kts 32°
2026-05-05 04:50 -22.10642 -45.39265 27116 ft 526 kts 32°
2026-05-05 04:50 -22.07656 -45.37044 27432 ft 529 kts 32°
2026-05-05 04:51 -22.04605 -45.34775 27774 ft 533 kts 32°
2026-05-05 04:51 -22.01562 -45.32470 28089 ft 537 kts 33°
2026-05-05 04:51 -21.98581 -45.30021 28395 ft 541 kts 35°
2026-05-05 04:51 -21.95627 -45.27480 28730 ft 544 kts 36°
2026-05-05 04:52 -21.92671 -45.24905 29033 ft 547 kts 36°
2026-05-05 04:52 -21.89698 -45.22325 29326 ft 549 kts 36°
2026-05-05 04:52 -21.86743 -45.19785 29688 ft 550 kts 35°
2026-05-05 04:52 -21.83739 -45.17228 30143 ft 549 kts 35°
2026-05-05 04:53 -21.80736 -45.14688 30543 ft 549 kts 35°
2026-05-05 04:53 -21.77736 -45.12161 30903 ft 548 kts 34°
2026-05-05 04:53 -21.74714 -45.09621 31304 ft 546 kts 34°
2026-05-05 04:53 -21.71715 -45.07101 31664 ft 546 kts 34°
2026-05-05 04:54 -21.68761 -45.04622 32002 ft 545 kts 34°
2026-05-05 04:54 -21.65769 -45.02111 32365 ft 544 kts 34°
2026-05-05 04:54 -21.62787 -44.99609 32732 ft 543 kts 34°
2026-05-05 04:54 -21.59808 -44.97110 33054 ft 542 kts 34°
2026-05-05 04:55 -21.56823 -44.94609 33226 ft 545 kts 34°
2026-05-05 04:55 -21.50852 -44.89613 33243 ft 548 kts 34°
2026-05-05 04:56 -21.44826 -44.84571 33260 ft 548 kts 34°
2026-05-05 04:56 -21.38798 -44.79532 33250 ft 548 kts 34°
2026-05-05 04:57 -21.32812 -44.74537 33250 ft 548 kts 34°
2026-05-05 04:57 -21.26792 -44.69510 33250 ft 547 kts 34°
2026-05-05 04:58 -21.20779 -44.64494 33243 ft 547 kts 34°
2026-05-05 04:58 -21.14758 -44.59479 33260 ft 546 kts 34°
2026-05-05 04:59 -21.08788 -44.54509 33252 ft 546 kts 34°
2026-05-05 04:59 -21.02774 -44.49510 33255 ft 546 kts 34°
2026-05-05 05:00 -20.96802 -44.44552 33258 ft 546 kts 34°
2026-05-05 05:00 -20.90782 -44.39566 33260 ft 546 kts 34°
2026-05-05 05:01 -20.84759 -44.34578 33259 ft 546 kts 34°
2026-05-05 05:01 -20.78781 -44.29633 33260 ft 546 kts 34°
2026-05-05 05:02 -20.72759 -44.24655 33260 ft 546 kts 34°
2026-05-05 05:02 -20.66739 -44.19687 33255 ft 546 kts 34°
2026-05-05 05:03 -20.60735 -44.14725 33257 ft 545 kts 35°
2026-05-05 05:03 -20.54751 -44.09830 33258 ft 542 kts 29°
2026-05-05 05:04 -20.47985 -44.06528 33237 ft 529 kts
2026-05-05 05:04 -20.40788 -44.05373 33259 ft 520 kts
2026-05-05 05:05 -20.33613 -44.04738 33256 ft 519 kts 359°
2026-05-05 05:05 -20.26396 -44.04159 33249 ft 519 kts 359°
2026-05-05 05:06 -20.19197 -44.03542 33254 ft 519 kts 359°
2026-05-05 05:06 -20.11981 -44.02897 33258 ft 519 kts 359°
2026-05-05 05:07 -20.04834 -44.02124 33249 ft 522 kts
2026-05-05 05:07 -19.97668 -44.00759 33235 ft 523 kts
2026-05-05 05:08 -19.90517 -43.99313 33232 ft 522 kts
2026-05-05 05:08 -19.83357 -43.97956 33228 ft 521 kts